www.pogodaiklimat.ru

Погода и климат >> Архив погоды >> Китай >> Внутренняя Монголия >> Мандал


ПОГОДА в Мандале

  • Прогноз погоды в Мандале
  • Монитор погоды в Мандале

АРХИВ ПОГОДЫ в Мандале

Время (UTC), дата Ветер
(напр.,м/с)
 
Видим.   Явления Облачность Т
(С)
Тd
(С)
f
(%)
Тe
(С)
Тes
(С)
Комфортность P
(гПа)
Po
(гПа)
Тmin
(С)
Tmax
(С)
R
(мм)
R24
(мм)
S
(см)
06 13.02 В 7 30 км 3/3
[]
-13.1 -22.3 46 -23 -22 1040.0 884.5 -22.4
09 13.02 В 7 30 км 9/9 1000 м
[]
-12.4 -22.4 43 -22 -22 1037.6 883.9
12 13.02 В 6 30 км 9/9 1000 м
[]
-14.8 -22.3 53 -24 -24 1037.7 882.6
15 13.02 В 6 30 км н/о -15.2 -22.4 54 -25 -25 1034.6 879.8
18 13.02 В 4 1900 м слаб. снег ?/? -15.8 -19.8 71 -24 -24 1031.7 879.1 -11.6 0.2
21 13.02 В 5 1200 м снег ?/? -15.9 -19.3 75 -25 -25 1028.2 874.0
00 14.02 З 9 1800 м слаб. снег 10/10
[]
-14.2 -17.5 76 -25 -25 1029.1 876.8 5
03 14.02 З 10
{18}
1100 м слаб. снег 9/9
[]
-16.3 -20.5 70 -29 -29 1032.8 877.7
06 14.02 СЗ 10
{18}
1100 м слаб. снег 9/9
[]
-14.9 -19.8 66 -27 -27 1034.4 880.9 -17.2 1
09 14.02 СЗ 8 8000 м слаб. снег 9/9
[]
-15.4 -20.3 66 -26 -26 1036.5 881.3
12 14.02 З 5 10 км слаб. снег 9/9
[]
-19.3 -22.9 73 -29 -29 1039.0 884.0 0.5
15 14.02 З 7 30 км н/о -20.7 -24.6 71 -33 -33 опасность
обморожения
1040.0 881.3
18 14.02 З 9 30 км ?/? -21.4 -25.6 69 -35 -35 опасность
обморожения
1038.9 883.2 -14.0 0.1
21 14.02 З 6 30 км н/о -22.3 -26.4 69 -34 -34 опасность
обморожения
1039.9 880.3
00 15.02 ЮЗ 2 30 км ясно -24.3 -29.3 63 -31 -31 опасность
обморожения
1043.5 885.0 0.1
03 15.02 З 7 30 км ясно -19.1 -24.4 63 -31 -29 опасность
обморожения
1044.0 885.6
06 15.02 З 7 30 км ясно -16.3 -22.8 57 -27 -25 1043.4 886.6 -24.5
09 15.02 СЗ 6 30 км ясно -15.8 -22.6 56 -26 -25 1043.7 887.2
12 15.02 СЗ 6 30 км ясно -18.9 -24.2 63 -30 -30 1046.8 887.9
15 15.02 З 3 30 км н/о -21.5 -25.4 71 -29 -29 1046.6 886.4
18 15.02 ЮВ 1 30 км ?/? -26.1 -30.4 67 -30 -30 1047.0 888.3 -15.2
21 15.02 З 2 30 км н/о -24.6 -28.2 72 -31 -31 опасность
обморожения
1046.0 884.1
00 16.02 штиль 0 30 км 3/3
[]
-27.7 -31.6 69 -28 -27 1048.5 888.4
03 16.02 Ю 2 30 км ясно -17.4 -23.5 59 -23 -17 1046.4 888.6
06 16.02 З 2 30 км ясно -12.2 -21.2 47 -17 -10 1045.4 888.1 -27.7
09 16.02 В 1 30 км ясно -11.1 -22.3 39 -13 -13 1043.6 889.7
12 16.02 СЗ 1 25 км ясно -18.4 -23.4 65 -21 -21 1047.3 887.5
15 16.02 СЗ 2 30 км н/о -19.3 -23.5 69 -25 -25 1044.6 886.0
18 16.02 С 1 22 км ?/? -20.7 -25.2 67 -24 -24 1042.5 887.2 -10.0
21 16.02 СЗ 2 30 км н/о -20.7 -24.4 72 -27 -27 1040.7 881.9
00 17.02 С 1 8000 м ясно -22.6 -26.9 68 -26 -26 1042.6 885.0
03 17.02 Ю 1 15 км ясно -11.0 -21.4 42 -13 -6 1039.0 885.9
06 17.02 З 1 30 км 3/3
[]
-8.0 -24.2 26 -10 -4 1036.0 882.8 -23.5
09 17.02 З 2 30 км 9/9
[]
-8.9 -20.3 39 -13 -13 1035.3 883.8
12 17.02 СЗ 1 30 км 9/9
[]
-14.6 -21.6 55 -17 -17 1037.4 881.6
15 17.02 СЗ 3 30 км н/о -15.0 -21.4 58 -22 -22 1033.2 878.8
18 17.02 С 1 30 км ?/? -16.5 -21.9 63 -19 -19 1031.1 879.7 -6.8
21 17.02 С 2 30 км н/о -19.7 -24.4 66 -25 -25 1030.4 873.7
00 18.02 СВ 1 19 км 3/3
[]
-18.3 -23.8 62 -21 -21 1031.0 877.4
03 18.02 З 1 30 км 5/5
[]
-11.4 -18.9 54 -14 -10 1029.1 877.2
06 18.02 З 2 30 км 3/3
[]
-6.9 -20.5 33 -11 -6 1025.8 875.5 -19.8
09 18.02 С 2 16 км 3/3
[]
-7.7 -18.4 42 -12 -11 1026.5 877.0
12 18.02 штиль 0 30 км 1/1
[]
-14.7 -21.3 57 -15 -15 1028.9 875.6
15 18.02 З 2 30 км н/о -16.8 -21.1 69 -22 -22 1027.7 873.1
18 18.02 Ю 1 30 км ?/? -20.5 -24.5 70 -24 -24 1026.9 875.4 -6.1
21 18.02 СЗ 1 30 км н/о -19.0 -23.8 66 -22 -22 1025.7 870.2
00 19.02 З 3 30 км ясно -18.8 -25.2 57 -26 -26 1029.1 875.6
03 19.02 З 4 30 км ясно -10.3 -22.2 37 -17 -13 1028.4 877.2
06 19.02 З 5 30 км ясно -5.7 -20.1 31 -12 -9 1027.9 876.5 -21.6
09 19.02 З 2 30 км ясно -4.6 -18.4 33 -8 -7 1028.1 879.9
12 19.02 С 1 30 км ясно -12.0 -20.3 50 -14 -14 1032.5 879.2
15 19.02 З 2 30 км н/о -14.0 -19.5 63 -19 -19 1032.0 878.3
18 19.02 З 1 30 км ?/? -14.1 -21.8 52 -17 -17 1030.7 880.6 -4.2
21 19.02 З 1 30 км н/о -16.0 -22.6 57 -19 -19 1031.7 876.9
00 20.02 штиль 0 30 км ясно -17.6 -23.5 60 -18 -17 1036.0 882.5
03 20.02 штиль 0 28 км ясно -3.0 -19.8 26 -3 +6 1033.1 885.0

 

Местоположение метеостанции Мандал (Внутренняя Монголия, Китай): широта 42.53 долгота 110.13 высота над уровнем моря 1223 м.

В архиве по умолчанию представлена погода в Мандале за последнюю неделю. Архивные данные за месяц целиком и за предыдущие месяцы, начиная с января 2011 года, Вы можете получить, выбрав интересующий диапазон дат из раскрывающегося списка и нажав кнопку "Ввод!".


*Определитесь, кто Вы:
робот инопланетянин человек

Внимание! Время в таблицах - всемирное. Для получения местного времени необходимо прибавить поправку, которая равна 8 ч.

Смотрите также архив погоды в соседних городах и на ближайших метеорологических станциях:

Погода в Дархан-Мумингане (Внутренняя Монголия, Китай) (96 км)
Погода в Хатанбулаге (Монголия) (104 км)
Погода в Хэй Лю Чжэнь (Внутренняя Монголия, Китай) (171 км)
Погода в Замун-Ууде (Монголия) (196 км)
Погода в Эрэн-Хото (Внутренняя Монголия, Китай) (196 км)
Погода в Чжурихе Чжень (Внутренняя Монголия, Китай) (228 км)
Погода в Хух-Хото (Внутренняя Монголия, Китай) (230 км)
Погода в Ханбогде (Монголия) (253 км)
Погода в Сайншанде (Монголия) (264 км)
Погода в Цзинине (Шаньдун, Китай) (295 км)

Пояснения к столбцам:

Ветер - указаны скорость ветра в м/с - средняя за 10 мин, порывы в срок и между сроками (в фигурных скобках) и направление, откуда дует ветер: С - северный, СВ - северо-восточный, В - восточный, ЮВ - юго-восточный, Ю - южный, ЮЗ - юго-западный, З - западный, СЗ - северо-западный.
Видимость - горизонтальная дальность видимости в метрах или километрах. При видимости от 1 до 10 км при отсутствии осадков обычно наблюдается дымка, при ухудшении видимости до 1 км и менее - туман. В сухую погоду видимость может ухудшаться дымом, пылью или мглою.
Явления - указаны атмосферные явления, наблюдавшиеся в срок или в последний час перед сроком; фигурными скобками обозначены явления, наблюдавшиеся между сроками (за 1-3 часа до срока); квадратными скобками обозначены град или гололедные отложения с указанием их диаметра в мм.
Облачность - указаны через наклонную черту общая и нижняя облачность в баллах и высота нижней границы облаков в метрах; квадратными скобками обозначены формы облаков: Ci - перистые, Cs - перисто-слоистые, Cc - перисто-кучевые, Ac - высококучевые, As - высокослоистые, Sc - слоисто-кучевые, Ns - слоисто-дождевые, Cu - кучевые, Cb - кучево-дождевые. Подробнее классификацию облаков см. в Атласе облаков (PDF).
T - Температура воздуха - температура, измеренная на высоте 2 м над землей.
Td - Температура точки росы - температура, при понижении до которой содержащийся в воздухе водяной пар достигнет насыщения.
f - Относительная влажность воздуха - влажноcть воздуха, измеренная на высоте 2 м над землей.
Te - Эффективная температура - температура, которую ощущает одетый по сезону человек в тени. Характеристика душности погоды. При расчете учитывается влияние влажности воздуха и скорости ветра на теплоощущения человека.
Tes - Эффективная температура на солнце - температура, которую ощущает человек, с поправкой на солнечный нагрев. Характеристика знойности погоды. Зависит от высоты солнца над горизонтом, облачности и скорости ветра. Ночью, в пасмурную погоду, а также при ветре 12 м/с и более поправка равна нулю.
P - Атмосферное давление - приведенное к уровню моря атмосферное давление.
Po - Атмосферное давление - измеренное на уровне метеостанции атмосферное давление.
Tmin - Минимальная температура - минимум температуры воздуха на высоте 2 м над землей.
Tmax - Максимальная температура - максимум температуры воздуха на высоте 2 м над землей.
R - Количество осадков - Количество выпавших осадков за период времени, мм. При наведении курсора мыши на число - период времени, за который выпало указанное количество осадков.
R24 - Количество осадков - Количество выпавших осадков за 24 часа, мм.
S - Снежный покров - Высота снежного покрова, см. При наведении курсора мыши на число - состояние снежного покрова и степень покрытия местности в баллах.